TimePDT,TemperatureF,Dew PointF,Humidity,Sea Level PressureIn,VisibilityMPH,Wind Direction,Wind SpeedMPH,Gust SpeedMPH,PrecipitationIn,Events,Conditions,WindDirDegrees,DateUTC
12:15 AM,75.2,60.8,61,29.98,10.0,NNE,4.6,-,N/A,,Clear,30,2013-06-28 07:15:00
12:35 AM,75.2,59.0,57,29.98,10.0,NNE,5.8,-,N/A,,Clear,30,2013-06-28 07:35:00
12:55 AM,75.2,57.2,53,29.98,10.0,NNE,5.8,-,N/A,,Clear,20,2013-06-28 07:55:00
1:15 AM,75.2,57.2,53,29.98,10.0,NNE,6.9,-,N/A,,Clear,20,2013-06-28 08:15:00
1:35 AM,75.2,55.4,50,29.97,10.0,North,9.2,-,N/A,,Clear,10,2013-06-28 08:35:00
1:55 AM,75.2,55.4,50,29.97,10.0,North,8.1,-,N/A,,Clear,10,2013-06-28 08:55:00
2:15 AM,75.2,55.4,50,29.96,10.0,NNE,5.8,-,N/A,,Clear,20,2013-06-28 09:15:00
2:35 AM,75.2,55.4,50,29.96,10.0,North,5.8,-,N/A,,Clear,10,2013-06-28 09:35:00
2:55 AM,73.4,55.4,53,29.96,10.0,North,4.6,-,N/A,,Clear,10,2013-06-28 09:55:00
3:15 AM,73.4,55.4,53,29.95,10.0,NNE,4.6,-,N/A,,Clear,20,2013-06-28 10:15:00
3:35 AM,73.4,55.4,53,29.95,10.0,NNE,4.6,-,N/A,,Clear,20,2013-06-28 10:35:00
3:55 AM,73.4,55.4,53,29.96,10.0,NNE,4.6,-,N/A,,Clear,30,2013-06-28 10:55:00
4:15 AM,73.4,55.4,53,29.96,10.0,North,6.9,-,N/A,,Clear,10,2013-06-28 11:15:00
4:35 AM,73.4,57.2,57,29.96,10.0,North,6.9,-,N/A,,Clear,350,2013-06-28 11:35:00
4:55 AM,71.6,57.2,60,29.96,10.0,North,-9999.0,-,N/A,,Clear,0,2013-06-28 11:55:00
5:55 AM,69.8,59.0,68,29.96,10.0,North,-9999.0,-,N/A,,Clear,0,2013-06-28 12:55:00
6:15 AM,69.8,60.8,73,29.96,10.0,North,-9999.0,-,N/A,,Clear,0,2013-06-28 13:15:00
6:35 AM,73.4,60.8,65,29.96,10.0,North,-9999.0,-,N/A,,Clear,0,2013-06-28 13:35:00
6:45 AM,73.4,60.8,65,29.96,10.0,NNW,11.5,-,N/A,,Clear,330,2013-06-28 13:45:00
6:55 AM,75.2,60.8,61,29.96,10.0,North,6.9,-,N/A,,Clear,10,2013-06-28 13:55:00
7:45 AM,80.6,59.0,48,29.97,10.0,NNW,11.5,-,N/A,,Clear,330,2013-06-28 14:45:00
8:45 AM,84.2,59.0,42,29.98,10.0,NNW,11.5,-,N/A,,Clear,330,2013-06-28 15:45:00
9:45 AM,87.8,60.8,40,29.97,10.0,NNW,9.2,-,N/A,,Clear,340,2013-06-28 16:45:00
10:45 AM,93.2,60.8,34,29.96,10.0,North,6.9,-,N/A,,Clear,350,2013-06-28 17:45:00
11:45 AM,96.8,55.4,25,29.96,10.0,North,9.2,-,N/A,,Clear,360,2013-06-28 18:45:00
12:45 PM,100.4,57.2,24,29.94,10.0,NNW,11.5,-,N/A,,Clear,330,2013-06-28 19:45:00
1:45 PM,100.4,57.2,24,29.92,10.0,NNW,11.5,-,N/A,,Clear,330,2013-06-28 20:45:00
2:45 PM,102.2,55.4,21,29.90,10.0,North,15.0,-,N/A,,Clear,360,2013-06-28 21:45:00
3:45 PM,105.8,53.6,18,29.88,10.0,NNW,11.5,-,N/A,,Clear,340,2013-06-28 22:45:00
4:45 PM,104.0,55.4,20,29.86,10.0,North,12.7,18.4,N/A,,Clear,350,2013-06-28 23:45:00
5:45 PM,104.0,51.8,17,29.86,10.0,NNW,15.0,19.6,N/A,,Clear,340,2013-06-29 00:45:00
6:45 PM,102.2,53.6,20,29.85,10.0,NNW,11.5,-,N/A,,Clear,340,2013-06-29 01:45:00
7:45 PM,98.6,53.6,22,29.85,10.0,NNW,9.2,-,N/A,,Clear,340,2013-06-29 02:45:00
8:45 PM,89.6,60.8,38,29.85,10.0,NNW,9.2,-,N/A,,Clear,340,2013-06-29 03:45:00
9:15 PM,84.2,59.0,42,29.85,10.0,North,-9999.0,-,N/A,,Clear,0,2013-06-29 04:15:00
9:35 PM,82.4,57.2,42,29.86,10.0,North,8.1,-,N/A,,Clear,10,2013-06-29 04:35:00
9:55 PM,82.4,57.2,42,29.86,10.0,North,8.1,-,N/A,,Clear,10,2013-06-29 04:55:00
10:15 PM,82.4,57.2,42,29.87,10.0,North,9.2,-,N/A,,Clear,10,2013-06-29 05:15:00
10:35 PM,82.4,57.2,42,29.87,10.0,NE,5.8,-,N/A,,Clear,50,2013-06-29 05:35:00
10:55 PM,80.6,57.2,45,29.87,10.0,NE,5.8,-,N/A,,Clear,40,2013-06-29 05:55:00
11:15 PM,78.8,57.2,47,29.87,10.0,NE,6.9,-,N/A,,Clear,50,2013-06-29 06:15:00
11:35 PM,78.8,60.8,54,29.88,10.0,NE,4.6,-,N/A,,Clear,40,2013-06-29 06:35:00
11:55 PM,77.0,60.8,57,29.87,10.0,ENE,5.8,-,N/A,,Clear,60,2013-06-29 06:55:00